Regional Weather Roundup
Issued by NWS

Home | Current Version | Previous Version | Text Only | Print | Product List | Glossary Off
Versions: 1 2 3 4 5 6 7 8 9 10 11 12 13 14 15 16 17 18 19 20 21 22 23 24 25 26 27 28 29 30 31 32 33 34 35 36 37 38 39 40 41 42 43 44 45 46 47 48 49 50

000
ASUS43 KDTX 160410
RWRMI
MICHIGAN HOURLY REGIONAL WEATHER ROUNDUP
NATIONAL WEATHER SERVICE DETROIT/PONTIAC MI
1200 AM EDT TUE SEP 16 2014

NOTE: "FAIR" INDICATES FEW OR NO CLOUDS BELOW 12,000 FEET WITH NO
SIGNIFICANT WEATHER AND/OR OBSTRUCTION TO VISIBILITY.

MIZ047>049-052>055-059>063-066>070-074>076-081>083-160500-
SOUTHEAST LOWER MICHIGAN

CITY           SKY/WX    TMP DP  RH WIND       PRES   REMARKS
ADRIAN         CLOUDY    53  52  96 SW5       30.11S
ALMA           CLOUDY    52  51  95 N3        30.12S
ANN ARBOR      MOCLDY    53  49  86 CALM      30.09S
BAD AXE        CLOUDY    52  52 100 CALM      30.10S
DETROIT CITY   CLOUDY    58  50  75 NW5       30.09R
DETROIT        MOCLDY    54  51  90 W3        30.10R
FLINT          CLOUDY    54  51  90 NW6       30.12R
GROSSE ILE     CLOUDY    55  54  94 W3        30.08S
HILLSDALE      MOCLDY    53  53 100 CALM      30.11S FOG
HOWELL         CLOUDY    51  51  98 N3        30.10S FOG

CITY           SKY/WX    TMP DP  RH WIND       PRES   REMARKS
JACKSON        MOCLDY    50  49  96 N3        30.11R FOG
LAMBERTVILLE   MOCLDY    54  52  94 CALM      30.10F
LANSING        CLOUDY    53  51  93 CALM      30.12S
LAPEER         NOT AVBL
MASON          MOCLDY    50  49  97 CALM      30.11S FOG
MONROE         MOCLDY    54  52  94 W3        30.08F
MT. CLEMENS    CLOUDY    54  52  91 NW3       30.07S
PONTIAC        MOCLDY    53  50  89 N6        30.09R
PORT HOPE        N/A     53  49  86 VRB3      30.08S
PORT HURON     CLOUDY    54  52  94 CALM      30.09S
TRI CITIES     CLOUDY    53  50  89 NW6       30.12R
YPSILANTI      CLOUDY    58  51  78 NW6       30.10R
$$
MIZ043>046-050>051-056>058-064>065-071>073-077>080-160500-
SOUTHWEST LOWER MICHIGAN

CITY           SKY/WX    TMP DP  RH WIND       PRES   REMARKS
BATTLE CREEK   CLOUDY    53  51  93 N3        30.12S
BENTON HARBOR  CLOUDY    53  51  93 NE3       30.13S
BIG RAPIDS     MOCLDY    43  43 100 CALM      30.12S VSB 1/2
COLDWATER      FOG       50  49  97 CALM      30.11S VSB 1/4
HOLLAND        PTCLDY    52  49  89 CALM      30.15R
GRAND RAPIDS   CLOUDY    53  51  93 N8        30.14R
KALAMAZOO      CLOUDY    53  51  93 NW3       30.13R FOG
MARSHALL       CLOUDY    52  51  98 CALM      30.11R
MUSKEGON       FOG       47  45  93 CALM      30.15R VSB 1/4
$$
MIZ016>042-160500-
NORTHERN LOWER MICHIGAN

CITY           SKY/WX    TMP DP  RH WIND       PRES   REMARKS
ALPENA         CLEAR     44  43  96 CALM      30.09S
BEAVER ISLAND  CLOUDY    54  46  74 N5        30.12S
BELLAIRE       CLOUDY    45  43  95 CALM      30.12S
CADILLAC       CLOUDY    42  42 100 CALM      30.11S
CHARLEVOIX     CLOUDY    57  47  68 N8        30.14R
FRANKFORT      PTCLDY    46  43  90 CALM      30.12S
GAYLORD        CLEAR     44  40  85 W3        30.11S
GRAYLING         N/A     41  41 100 CALM      30.12S FOG
HARBOR SPRINGS CLOUDY    53  47  82 N7        30.11R
HOUGHTON LAKE  FOG       40  40 100 N3        30.12S VSB 1/4
MANISTEE       MOCLDY    43  39  87 CALM      30.13S VSB 1/2
OSCODA         FOG       46  46 100 CALM      30.09S VSB 3/4
PELLSTON       CLOUDY    49  47  93 CALM      30.11R
TRAVERSE CITY  PTCLDY    46  42  86 CALM      30.11S
$$
MIZ007>008-015-160500-
EASTERN UPPER MICHIGAN

CITY           SKY/WX    TMP DP  RH WIND       PRES   REMARKS
KINROSS        MOCLDY    46  45  93 W3        30.09S
MACKINAC ISLAN CLOUDY    51  45  82 N5        30.10S
NEWBERRY       PTCLDY    42  41  97 W5        30.10S
S. S. MARIE    CLEAR     47  43  86 CALM      30.08S
$$
MIZ004>006-011>014-085-160500-
CENTRAL UPPER MICHIGAN

CITY           SKY/WX    TMP DP  RH WIND       PRES   REMARKS
MANISTIQUE     CLOUDY    46  45  98 W3        30.11S
ESCANABA       MOCLDY    48  46  93 NW5       30.13S
MENOMINEE      PTCLDY    48  41  76 NW7       30.14R
SAWYER-GWINN   CLEAR     42  38  88 W3        30.11S
$$
MIZ001>003-009>011-084-160500-
WESTERN UPPER MICHIGAN

CITY           SKY/WX    TMP DP  RH WIND       PRES   REMARKS
IRON MOUNTAIN  CLEAR     39  36  89 CALM      30.13S
HOUGHTON       CLEAR     46  38  73 W13       30.09F
COPPER HARBOR    N/A     51  37  58 VRB5      30.07S
IRONWOOD       CLEAR     37  37 100 W3        30.13S
$$

ABBREVIATIONS USED IN REMARKS
   TC - TEMPERATURE IN CELSIUS
  WCI - WIND CHILL INDEX
   HX - HEAT INDEX
  VSB - VISIBILITY



USA.gov is the U.S. government's official web portal to all federal, state and local government web resources and services.